Torna al catalogo

ORBCOMM FM 34

AttivoComunicazioniLEO
NORAD 25986·PAYLOAD·🇺🇸 United States

Lanciato Dec 4, 1999 da Cape Canaveral Space Force Station

Loading…

Prossimi Passaggi (prossime 24 ore)

TLE

AggiornatoSource: Space-Track

Epoca: Sep 14, 2026, 14:45 UTC

1 25986U 99065G   26257.61515149  .00000436  00000-0  18924-3 0  9993
2 25986  45.0381 104.5342 0004427  94.1332 266.0023 14.38057811400293

Traccia ORBCOMM FM 34 in tempo reale con AllMySat

Download on the App Store